Weather Roundup
Issued by NWS

Home | Current Version | Previous Version | Text Only | Print | Product List | Glossary On
Versions: 1 2 3 4 5 6 7 8 9 10 11 12 13 14 15 16 17 18 19 20 21 22 23 24 25 26 27 28 29 30 31 32 33 34 35 36 37 38 39 40 41 42 43 44 45 46 47 48 49 50
000
NZUS93 KARX 291059
HRRWXR

CURRENT HOURLY OBSERVATIONS ACROSS
MUCH OF THE UPPER MISSISSIPPI VALLEY
NATIONAL WEATHER SERVICE LA CROSSE WI
600 AM CDT FRI JUL 29 2016


...SOUTHEAST MINNESOTA...


CITY           SKY/WX    TMP DP  RH WIND       PRES   REMARKS
ROCHESTER      CLOUDY    64  61  90 N13       30.02F
ROCHESTER/MAYO CLOUDY    64  62  95 N5        30.03S
WINONA         CLOUDY    66  61  82 NE7       30.01S
AUSTIN         CLOUDY    63  59  88 NE7       30.00F
ALBERT LEA     CLOUDY    64  61  88 NE7       30.01F
DODGE CENTER   CLOUDY   N/A N/A N/A NE7       30.03S
PRESTON        CLOUDY    61  59  91 NE8       30.01S
OWATONNA       CLOUDY    64  61  88 NE5       30.03S
FARIBAULT        N/A     64  63  94 N5        30.04S
$$

...ELSEWHERE IN MINNESOTA...


CITY           SKY/WX    TMP DP  RH WIND       PRES   REMARKS
MINNEAPOLIS    PTCLDY    61  55  81 N6        30.06R
INTNL FALLS    CLEAR     48  46  93 CALM      30.11S
DULUTH         PTCLDY    52  49  89 N3        30.12S
RED WING       CLOUDY    64  59  82 CALM      30.03S
REDWOOD FALLS  PTCLDY    58  55  90 N3        30.07S
MANKATO        CLOUDY    63  55  77 N8        30.04S
WORTHINGTON    CLEAR     56  54  93 NW6       30.07R
FAIRMONT       CLEAR     61  55  82 N6        30.02S
$$

...SOUTHWEST WISCONSIN...


CITY           SKY/WX    TMP DP  RH WIND       PRES   REMARKS
LA CROSSE      CLOUDY    65  57  75 N6        29.99S
PRAIRIE DU CHI CLOUDY    65  61  86 CALM      29.95F
BOSCOBEL       CLOUDY    67  62  84 NE5       29.96S
LONE ROCK      NOT AVBL
PLATTEVILLE    CLOUDY    66  64  96 NE7       29.96S
FORT MC COY    CLOUDY    63  56  79 NE7       30.01F
MAUSTON-NEW LI CLOUDY    63  58  82 CALM      30.00S
VIROQUA        CLOUDY    63  62  97 NE6       29.98F
WIS DELLS      NOT AVBL
$$

...ELSEWHERE IN WISCONSIN...


CITY           SKY/WX    TMP DP  RH WIND       PRES   REMARKS
MILWAUKEE      CLOUDY    67  64  90 N12       29.95R
MADISON        LGT RAIN  63  62  97 NE13      29.96S FOG
GREEN BAY      CLOUDY    60  58  92 N10       30.02R
EAU CLAIRE     NOT AVBL
BLACK RVR FLS  CLOUDY    61  60  97 NE6       30.01S
MEDFORD        MOCLDY    53  53 100 NE5       30.05S
WAUSAU         PTCLDY    57  52  83 N3        30.03S
WIS RAPIDS     MOCLDY    61  52  72 NE8       30.03S
MARSHFIELD     PTCLDY    59  55  87 NE7       30.03S
RICE LAKE      CLEAR     55  52  92 CALM      30.09S
$$

...NORTHEAST IOWA...


CITY           SKY/WX    TMP DP  RH WIND       PRES   REMARKS
WATERLOO       CLOUDY    65  64  97 N6        29.94S
DUBUQUE        CLOUDY    66  62  87 NE9       29.95S
DECORAH        CLOUDY    63  63 100 NE5       29.97S
MASON CITY     CLOUDY    63  60  90 N12       30.00F
CHARLES CITY   CLOUDY    63  63 100 N7        29.98S FOG
OELWEIN        CLOUDY    66  64  94 NE10      29.95F
$$

...ELSEWHERE IN IOWA...


CITY           SKY/WX    TMP DP  RH WIND       PRES   REMARKS
DES MOINES     CLOUDY    66  62  87 N8        29.95F
IOWA CITY      CLOUDY    68  65  90 NW8       29.93S
FORT DODGE     CLEAR     63  61  94 N5        30.00S
MARSHALLTOWN   CLOUDY    65  64  97 NW6       29.95S
CEDAR RAPIDS   CLOUDY    66  66 100 NW8       29.92S
$$

...NORTHERN ILLINOIS...


CITY           SKY/WX    TMP DP  RH WIND       PRES   REMARKS
CHICAGO-OHARE  MOCLDY    70  68  93 N7        29.91S
CHICAGO-MIDWAY MOCLDY    70  68  93 NW5       29.90F FOG
MOLINE         CLOUDY    71  68  90 NW3       29.90S
ROCKFORD       CLOUDY    70  64  81 NE9       29.94S
PEORIA         CLEAR     68  67  96 CALM      29.91R
$$

NOTE: "FAIR" INDICATES FEW OR NO CLOUDS BELOW 12,000 FEET WITH NO
SIGNIFICANT WEATHER AND/OR OBSTRUCTIONS TO VISIBILITY. WIND
SPEEDS ARE IN MILES-PER-HOUR.




USA.gov is the U.S. government's official web portal to all federal, state and local government web resources and services.